Regional Weather Roundup
Issued by NWS

Home | Current Version | Previous Version | Text Only | Print | Product List | Glossary On
Versions: 1 2 3 4 5 6 7 8 9 10 11 12 13 14 15 16 17 18 19 20 21 22 23 24 25 26 27 28 29 30 31 32 33 34 35 36 37 38 39 40 41 42 43 44 45 46 47 48 49
000
ASCA42 TJSJ 082210
RWRPR
PUERTO RICO/U.S. VIRGIN ISLANDS HOURLY WEATHER ROUNDUP
NATIONAL WEATHER SERVICE SAN JUAN PR
600 PM AST MON FEB 08 2016

PRZ001-004-082300-
PUERTO RICO

CITY           SKY/WX    TMP DP  RH WIND       PRES   REMARKS
SAN JUAN LMM   PTCLDY    82  68  61 S7        29.98R
AGUADILLA      MOCLDY    79  72  78 NE8       30.00R
CEIBA          CLEAR     81  72  74 S7        30.01S
$$

PRZ006-007-082300-
U.S. VIRGIN ISLANDS

CITY           SKY/WX    TMP DP  RH WIND       PRES   REMARKS
CHARLOTTE AMA  CLEAR     81  72  74 SE10      29.99R
CHRISTIANSTED  PTCLDY    81  72  74 E8        30.00S
$$

HOURLY WEATHER ROUNDUP FOR THE NEWS MEDIA

CITY           SKY/WX    TMP DP  RH WIND       PRES   REMARKS
ORLANDO        MOSUNNY   65  43  44 SW18G24   29.90S
NEW YORK       FLURRIES  31  23  72 N10       29.77R WCI  22
NEWARK         CLOUDY    34  23  64 NE6       29.76R WCI  29
CHICAGO        CLOUDY    27  20  75 NW13      29.70R WCI  16
HARTFORD       LGT SNOW  22  18  85 NW12G22   29.67R FOG     WCI  10
BOSTON         SNOW      21  15  78 N15G30    29.74R VSB 1/2 WCI   8
DALLAS         MOSUNNY   56   8  14 NW22G39   30.24F
PHILADELPHIA   CLOUDY    42  25  50 E3        29.73S
LOS ANGELES    SUNNY     88  24  10 VRB3      30.08F
WASHINGTON DC  CLOUDY    44  26  49 SE8       29.66F


USA.gov is the U.S. government's official web portal to all federal, state and local government web resources and services.